Погода в Междуреченске

Россия / Самарская область     53°16′12″N   49°06′51″E
темп.,
°C
ветер,
м/с
пор.,
м/с
влажн.,
%
обл.,
%
осадки,
мм/ч
давл.,
гПа
погр.,
м
18 апреля, вс
вс1801:00+10св38651 0.0 1018171
04:00+8ссв387031 0.0 1018160
07:00+8ссв2765100 0.0 1018184
10:00+12св574898 0.0 1018497
13:00+15св6739100 0.0 10181032
16:00+17св673859 0.0 10181450
19:00+14св5104246 0.0 1018364
22:00+11св5125099 0.0 1019360
19 апреля, пн
пн1901:00+8всв6136962 0.0 1020451
04:00+6св51269100 0.0 1021433
07:00+5св6127199 0.0 1021525
10:00+7всв7961100 0.0 1022759
13:00+11в7951100 0.0 10211335
16:00+11всв8952100 0.0 10221554
19:00+8в8105799 0.0 10241035
22:00+6в61258100 0.0 1025930
20 апреля, вт
вт2001:00+7вюв61156100 0.0 10261064
04:00+6вюв7115391 0.0 1027929
07:00+4вюв7125028 0.0 1028684
10:00+6вюв811410 0.0 1029962
13:00+9вюв89350 0.0 10291347
16:00+11вюв810326 0.0 10271438
19:00+9вюв71136100 0.0 10261109
22:00+6вюв71441100 0.0 1027775
21 апреля, ср
ср2101:00+5юв81545100 0.0 1026712
04:00+3юв81646100 0.0 1026608
07:00+3юв81648100 0.0 1026691
10:00+6юв91442100 0.0 1025916
13:00+6ююв81547100 0.3 1025977
16:00+5ююв71472100 1.6 1025982
19:00+5ююв71585100 1.5 1025921
22:00+4ююв71491100 4.1 1026861
22 апреля, чт
чт2201:00+5ююв61289100 0.8 1026686
04:00+5ююв51091100 0.9 1026571
07:00+5ююв51092100 0.1 1027551
10:00+6ююв5888100 0.1 1028543
13:00+7ююв5686100 0.0 1028572
16:00+9ююв6777100 0.0 1028807
19:00+8ююв6879100 0.0 1029568
22:00+5юв5787100 0.0 1029378